Terug naar catalogus

COSMOS 1275 DEB

ActiefPO
NORAD 42141·DEBRIS·🇷🇺 Russia

Gelanceerd Jun 4, 1981 vanaf Plesetsk Cosmodrome

Loading…

Volgende Passages (komende 24 uur)

TLE

VerouderdSource: Space-Track

Epoch: Sep 1, 2026, 10:20 UTC

1 42141U 81053RD  26244.43117250  .00002486  00000-0  87041-3 0  9993
2 42141  82.7741 143.3987 0022878 141.5367 218.7458 14.34667925142966

Volg COSMOS 1275 DEB in realtime met AllMySat

Download on the App Store